Location: Newark
(12.4436°N, 0.6167°W)
Time: 03:30:12
(UTC+00:00)

Courier 1B - All Passes

Search period start: 13 December 2019 00:00
Search period end: 23 December 2019 00:00
Orbit: 963 x 1209 km, 28.3° (Epoch: 12 December)

Date Brightness Start Highest point End Pass type
(mag) Time Alt. Az. Time Alt. Az. Time Alt. Az.
13 Dec - 01:44:47 10° NW 01:52:32 61° NNE 02:00:14 10° ESE visible
13 Dec - 03:39:29 10° WNW 03:46:59 49° SSW 03:54:17 10° SE visible
13 Dec - 05:37:53 10° WSW 05:41:17 13° SSW 05:44:37 10° S visible
13 Dec - 15:19:01 10° SSW 15:23:33 20° SSE 15:28:11 10° ESE daylight
13 Dec - 17:10:50 10° SW 17:17:26 74° SSE 17:24:26 10° ENE daylight
13 Dec - 19:05:27 10° W 19:11:50 40° NNW 19:18:38 10° NE visible
13 Dec - 21:01:35 10° WNW 21:07:13 24° N 21:13:05 10° NE visible
13 Dec - 22:56:57 10° NW 23:03:02 26° N 23:09:19 10° ENE night (unlit)
14 Dec - 00:50:57 10° NW 00:58:25 48° NNE 01:05:57 10° E night (unlit)
14 Dec - 02:45:14 10° WNW 02:53:01 66° SSW 03:00:41 10° SE visible
14 Dec - 04:41:59 10° WSW 04:47:18 20° SSW 04:52:31 10° SSE visible
14 Dec - 14:26:57 10° S 14:29:46 13° SSE 14:32:36 10° ESE daylight
14 Dec - 16:17:22 10° SW 16:23:42 53° SSE 16:30:20 10° ENE daylight
14 Dec - 18:11:22 10° W 18:17:52 50° NNW 18:24:46 10° NE visible
14 Dec - 20:07:17 10° WNW 20:12:57 25° N 20:18:54 10° NE visible
14 Dec - 22:03:00 10° NW 22:08:43 23° N 22:14:38 10° ENE night (unlit)
14 Dec - 23:57:10 10° NW 00:04:14 39° NNE 00:11:29 10° E night (unlit)
15 Dec - 01:51:09 10° WNW 01:59:01 86° SSW 02:06:53 10° ESE visible
15 Dec - 03:46:53 10° W 03:53:20 28° SSW 03:59:40 10° SSE visible
15 Dec - 15:24:05 10° SW 15:29:59 37° SSE 15:36:04 10° E daylight
15 Dec - 17:17:25 10° WSW 17:23:58 66° NNW 17:30:53 10° ENE daylight
15 Dec - 19:12:59 10° WNW 19:18:46 28° NNW 19:24:51 10° NE visible
15 Dec - 21:08:59 10° NW 21:14:23 22° N 21:20:02 10° NE visible
15 Dec - 23:03:25 10° NW 23:10:02 32° NNE 23:16:52 10° ENE night (unlit)
16 Dec - 00:57:14 10° WNW 01:04:58 74° NNE 01:12:51 10° ESE night (unlit)
16 Dec - 02:52:13 10° W 02:59:22 38° SSW 03:06:28 10° SE visible
16 Dec - 14:31:02 10° SSW 14:36:17 26° SSE 14:41:35 10° E daylight
16 Dec - 16:23:38 10° WSW 16:30:10 87° NNW 16:36:59 10° ENE daylight
16 Dec - 18:18:44 10° W 18:24:40 33° NNW 18:30:56 10° NE visible
16 Dec - 20:14:51 10° NW 20:20:06 22° N 20:25:34 10° NE visible
16 Dec - 22:09:41 10° NW 22:15:48 27° NNE 22:22:09 10° ENE night (unlit)
17 Dec - 00:03:26 10° NW 00:10:55 58° NNE 00:18:38 10° ESE night (unlit)
17 Dec - 01:57:52 10° WNW 02:05:24 52° SSW 02:12:58 10° SE visible
17 Dec - 03:55:36 10° WSW 03:59:48 15° SSW 04:03:58 10° S visible
17 Dec - 13:38:21 10° S 13:42:33 18° SSE 13:46:43 10° ESE daylight
17 Dec - 15:30:01 10° SW 15:36:26 69° SSE 15:43:03 10° ENE daylight
17 Dec - 17:24:33 10° W 17:30:40 40° NNW 17:37:06 10° NE daylight
17 Dec - 19:20:39 10° NW 19:25:51 22° N 19:31:18 10° NE visible
17 Dec - 21:15:54 10° NW 21:21:33 24° N 21:27:25 10° ENE visible
17 Dec - 23:09:42 10° NW 23:16:49 46° NNE 23:24:13 10° E night (unlit)
18 Dec - 01:03:45 10° WNW 01:11:25 70° SSW 01:19:14 10° SE night (unlit)
18 Dec - 03:00:04 10° WSW 03:05:46 22° SSW 03:11:28 10° SSE visible
18 Dec - 12:46:28 10° S 12:48:44 12° SSE 12:51:00 10° SE daylight
18 Dec - 14:36:32 10° SW 14:42:44 49° SSE 14:49:00 10° ENE daylight
18 Dec - 16:30:29 10° W 16:36:46 52° NNW 16:43:19 10° NE daylight
18 Dec - 18:26:22 10° WNW 18:31:40 24° N 18:37:13 10° NE visible
18 Dec - 20:22:04 10° NW 20:27:17 22° N 20:32:44 10° NE visible
18 Dec - 22:16:03 10° NW 22:22:42 37° NNE 22:29:39 10° E night (unlit)
19 Dec - 00:09:48 10° WNW 00:17:25 90° NNE 00:25:19 10° ESE night (unlit)
19 Dec - 02:05:11 10° W 02:11:46 30° SSW 02:18:26 10° SSE visible
19 Dec - 13:43:14 10° SSW 13:49:02 34° SSE 13:54:49 10° E daylight
19 Dec - 15:36:32 10° WSW 15:42:58 69° NNW 15:49:33 10° ENE daylight
19 Dec - 17:32:05 10° WNW 17:37:35 28° NNW 17:43:18 10° NE daylight
19 Dec - 19:28:06 10° NW 19:33:02 21° N 19:38:10 10° NE visible
19 Dec - 21:22:26 10° NW 21:28:33 30° NNE 21:35:00 10° ENE visible
19 Dec - 23:16:01 10° WNW 23:23:24 70° NNE 23:31:10 10° ESE night (unlit)
20 Dec - 01:10:42 10° W 01:17:47 41° SSW 01:25:04 10° SE night (unlit)
20 Dec - 03:10:17 10° SW 03:12:21 11° SSW 03:14:27 10° SSW visible
20 Dec - 12:50:09 10° SSW 12:55:19 24° SSE 13:00:24 10° E daylight
20 Dec - 14:42:43 10° WSW 14:49:13 89° SSE 14:55:46 10° ENE daylight
20 Dec - 16:37:48 10° W 16:43:34 33° NNW 16:49:31 10° NE daylight
20 Dec - 18:34:00 10° NW 18:38:49 20° N 18:43:49 10° NE visible
20 Dec - 20:28:47 10° NW 20:34:23 25° NNE 20:40:16 10° ENE visible
20 Dec - 22:22:20 10° NW 22:29:24 54° NNE 22:36:52 10° E night (unlit)
21 Dec - 00:16:30 10° WNW 00:23:49 55° SSW 00:31:26 10° SE night (unlit)
21 Dec - 02:13:43 10° WSW 02:18:16 16° SSW 02:22:52 10° S visible
21 Dec - 11:57:25 10° S 12:01:31 17° SSE 12:05:33 10° ESE daylight
21 Dec - 13:49:02 10° SW 13:55:30 65° SSE 14:01:54 10° ENE daylight
21 Dec - 15:43:36 10° W 15:49:39 41° NNW 15:55:49 10° NE daylight
21 Dec - 17:39:47 10° NW 17:44:39 21° N 17:49:42 10° NE daylight
21 Dec - 19:35:05 10° NW 19:40:13 22° N 19:45:33 10° ENE visible
21 Dec - 21:28:44 10° NW 21:35:22 42° NNE 21:42:24 10° E visible
21 Dec - 23:22:32 10° WNW 23:29:52 73° SSW 23:37:37 10° SE night (unlit)
22 Dec - 01:18:28 10° W 01:24:13 23° SSW 01:30:07 10° SSE night (unlit)
22 Dec - 11:05:32 10° S 11:07:39 11° SSE 11:09:45 10° SE daylight
22 Dec - 12:55:30 10° SW 13:01:48 46° SSE 13:07:56 10° ENE daylight
22 Dec - 14:49:29 10° W 14:55:48 54° NNW 15:02:09 10° NE daylight
22 Dec - 16:45:27 10° WNW 16:50:33 24° NNW 16:55:47 10° NE daylight
22 Dec - 18:41:16 10° NW 18:46:01 20° N 18:50:57 10° NE visible
22 Dec - 20:35:10 10° NW 20:41:19 34° NNE 20:47:49 10° E visible
22 Dec - 22:28:43 10° WNW 22:35:55 85° NNE 22:43:36 10° ESE night (unlit)
